Location: Bothwell
(42.3833°S, 147.0000°E)
Time: 19:40:54
(UTC+11:00)

NANOSAT C BR1 - Visible Passes

Search period start: 29 November 2023 00:00
Search period end: 09 December 2023 00:00
Orbit: 562 x 579 km, 98.1° (Epoch: 28 November)

Date Brightness Start Highest point End Pass type
(mag) Time Alt. Az. Time Alt. Az. Time Alt. Az.
29 Nov ? 02:23:05 10° E 02:25:09 14° ESE 02:27:13 10° SSE visible
29 Nov ? 03:56:42 17° N 03:59:44 57° W 04:03:52 10° SSW visible
30 Nov ? 02:25:00 10° E 02:27:11 14° ESE 02:29:25 10° SSE visible
30 Nov ? 03:58:45 17° N 04:01:49 54° W 04:05:56 10° SSW visible
01 Dec ? 02:26:54 10° E 02:29:14 15° ESE 02:31:35 10° SSE visible
01 Dec ? 04:00:47 16° N 04:03:53 52° W 04:07:59 10° SSW visible
02 Dec ? 02:28:49 10° E 02:31:15 15° ESE 02:33:42 10° SSE visible
02 Dec ? 04:02:47 16° N 04:05:55 49° W 04:10:00 10° SSW visible
03 Dec ? 02:30:42 10° ENE 02:33:14 16° ESE 02:35:48 10° SSE visible
03 Dec ? 04:04:47 15° N 04:07:56 47° W 04:11:59 10° SSW visible
04 Dec ? 02:32:33 10° ENE 02:35:13 17° ESE 02:37:53 10° SSE visible
04 Dec ? 04:06:45 15° NNW 04:09:56 44° W 04:13:57 10° SSW visible
05 Dec ? 02:34:25 10° ENE 02:37:10 17° ESE 02:39:56 10° SSE visible
05 Dec ? 04:08:43 15° NNW 04:11:54 42° W 04:15:54 10° SSW visible
06 Dec ? 02:36:16 10° ENE 02:39:06 18° ESE 02:41:57 10° SSE visible
06 Dec ? 04:10:39 14° NNW 04:13:52 40° W 04:17:50 10° SSW visible
07 Dec ? 02:38:06 10° ENE 02:41:01 19° ESE 02:43:56 10° SSE visible
07 Dec ? 04:12:34 14° NNW 04:15:48 39° W 04:19:44 10° SSW visible
08 Dec ? 02:39:55 10° ENE 02:42:54 19° ESE 02:45:55 10° SSE visible
08 Dec ? 04:14:28 14° NNW 04:17:42 37° W 04:21:37 10° SSW visible
